Location: Recife
(8.0585°S, 34.8848°W)
Time: 11:35:09
(UTC-03:00)

Vanguard 2 - Pass Details

Date: 22 April 2026
Orbit: 554 x 2894 km, 32.9° (Epoch: 8 May)

Event Time Altitude Azimuth Distance (km) Brightness Sun altitude
Rises 20:32:16 0° 263° (W) 4,956 12.3 -49.0°
Reaches altitude 10° 20:35:42 10° 253° (WSW) 4,289 11.7 -49.9°
Enters shadow 20:44:45 32° 205° (SSW) 3,532 10.8 -52.1°
Maximum altitude 20:46:30 33° 194° (SSW) 3,596 - -52.5°
Drops below altitude 10° 21:00:54 10° 136° (SE) 5,679 - -56.0°
Sets 21:06:25 0° 127° (SE) 6,738 - -57.4°
